{"data":{"norad_id":51966,"epoch":"2026-09-20T03:20:27.877056Z","epoch_age_seconds":87257,"freshness":"FRESH","line1":"1 51966U 22025L   26263.13921154 -.00000563  00000+0 -63657-5 0  9990","line2":"2 51966  53.1597 212.0535 0001569  86.7925 273.3256 15.31700102250628","mean_motion":15.31700102,"eccentricity":0.0001569,"inclination_deg":53.1597,"raan_deg":212.0535,"arg_perigee_deg":86.7925,"mean_anomaly_deg":273.3256,"bstar":-6.3657e-6,"rev_number":25062,"period_min":94.0131817005,"perigee_km":469.66510241613,"apogee_km":471.81427992182,"semimajor_km":6848.876691169,"source":"CELESTRAK","updated_at":"2026-09-20T09:00:39.976883Z"}}